TimeEDT,TemperatureF,Dew PointF,Humidity,Sea Level PressureIn,VisibilityMPH,Wind Direction,Wind SpeedMPH,Gust SpeedMPH,PrecipitationIn,Events,Conditions,WindDirDegrees,DateUTC
12:15 AM,35.6,8.6,33,30.10,10.0,WNW,4.6,-,N/A,,Clear,290,2013-03-14 04:15:00
12:35 AM,35.6,8.6,33,30.10,10.0,West,3.5,-,N/A,,Clear,280,2013-03-14 04:35:00
12:55 AM,35.6,8.6,33,30.10,10.0,WSW,3.5,-,N/A,,Clear,250,2013-03-14 04:55:00
1:15 AM,35.6,8.6,33,30.10,10.0,Calm,Calm,-,N/A,,Clear,0,2013-03-14 05:15:00
1:35 AM,35.6,8.6,33,30.10,10.0,Calm,Calm,-,N/A,,Clear,0,2013-03-14 05:35:00
1:55 AM,35.6,8.6,33,30.10,10.0,Calm,Calm,-,N/A,,Clear,0,2013-03-14 05:55:00
2:15 AM,35.6,8.6,33,30.10,10.0,West,3.5,-,N/A,,Clear,280,2013-03-14 06:15:00
2:35 AM,33.8,10.4,38,30.10,10.0,West,3.5,-,N/A,,Clear,270,2013-03-14 06:35:00
2:55 AM,35.6,10.4,35,30.10,10.0,Calm,Calm,-,N/A,,Clear,0,2013-03-14 06:55:00
3:15 AM,33.8,10.4,38,30.10,10.0,WSW,3.5,-,N/A,,Clear,240,2013-03-14 07:15:00
3:35 AM,33.8,10.4,38,30.10,10.0,WSW,3.5,-,N/A,,Clear,250,2013-03-14 07:35:00
3:55 AM,33.8,12.2,41,30.11,10.0,Calm,Calm,-,N/A,,Clear,0,2013-03-14 07:55:00
4:15 AM,33.8,12.2,41,30.10,10.0,Calm,Calm,-,N/A,,Clear,0,2013-03-14 08:15:00
4:35 AM,33.8,10.4,38,30.10,10.0,Calm,Calm,-,N/A,,Clear,0,2013-03-14 08:35:00
4:55 AM,33.8,10.4,38,30.10,10.0,Calm,Calm,-,N/A,,Clear,0,2013-03-14 08:55:00
5:15 AM,32.0,10.4,41,30.11,10.0,Calm,Calm,-,N/A,,Clear,0,2013-03-14 09:15:00
5:35 AM,32.0,10.4,41,30.11,10.0,West,4.6,-,N/A,,Clear,270,2013-03-14 09:35:00
5:55 AM,32.0,10.4,41,30.12,10.0,Calm,Calm,-,N/A,,Clear,0,2013-03-14 09:55:00
6:15 AM,32.0,10.4,41,30.13,10.0,Calm,Calm,-,N/A,,Clear,0,2013-03-14 10:15:00
6:35 AM,30.2,10.4,44,30.13,10.0,Calm,Calm,-,N/A,,Clear,0,2013-03-14 10:35:00
6:55 AM,30.2,10.4,44,30.14,10.0,Calm,Calm,-,N/A,,Clear,0,2013-03-14 10:55:00
7:15 AM,30.2,10.4,44,30.15,10.0,Calm,Calm,-,N/A,,Clear,0,2013-03-14 11:15:00
7:35 AM,28.4,12.2,51,30.15,10.0,Calm,Calm,-,N/A,,Clear,0,2013-03-14 11:35:00
7:55 AM,30.2,12.2,47,30.16,10.0,Calm,Calm,-,N/A,,Clear,0,2013-03-14 11:55:00
8:15 AM,32.0,12.2,44,30.16,10.0,Calm,Calm,-,N/A,,Clear,0,2013-03-14 12:15:00
8:35 AM,33.8,10.4,38,30.16,10.0,WSW,3.5,-,N/A,,Clear,240,2013-03-14 12:35:00
8:55 AM,35.6,10.4,35,30.17,10.0,SW,4.6,-,N/A,,Clear,230,2013-03-14 12:55:00
9:15 AM,35.6,8.6,33,30.17,10.0,West,8.1,-,N/A,,Clear,260,2013-03-14 13:15:00
9:35 AM,37.4,8.6,30,30.17,10.0,WSW,8.1,-,N/A,,Clear,240,2013-03-14 13:35:00
9:55 AM,37.4,8.6,30,30.18,10.0,West,5.8,-,N/A,,Clear,270,2013-03-14 13:55:00
10:15 AM,39.2,8.6,28,30.17,10.0,West,5.8,-,N/A,,Clear,270,2013-03-14 14:15:00
10:35 AM,39.2,6.8,26,30.18,10.0,WNW,8.1,-,N/A,,Clear,290,2013-03-14 14:35:00
10:55 AM,41.0,8.6,26,30.18,10.0,WNW,8.1,-,N/A,,Clear,300,2013-03-14 14:55:00
11:15 AM,41.0,6.8,24,30.17,10.0,NW,8.1,17.3,N/A,,Clear,320,2013-03-14 15:15:00
11:35 AM,42.8,8.6,25,30.16,10.0,West,8.1,-,N/A,,Clear,280,2013-03-14 15:35:00
11:55 AM,42.8,6.8,23,30.16,10.0,West,6.9,-,N/A,,Clear,280,2013-03-14 15:55:00
12:15 PM,44.6,8.6,23,30.15,10.0,West,4.6,-,N/A,,Clear,270,2013-03-14 16:15:00
12:35 PM,44.6,8.6,23,30.14,10.0,WNW,3.5,-,N/A,,Clear,300,2013-03-14 16:35:00
12:55 PM,46.4,8.6,22,30.13,10.0,West,5.8,17.3,N/A,,Clear,280,2013-03-14 16:55:00
1:15 PM,48.2,6.8,19,30.12,10.0,NNW,6.9,-,N/A,,Clear,330,2013-03-14 17:15:00
1:35 PM,48.2,6.8,19,30.12,10.0,West,9.2,-,N/A,,Clear,260,2013-03-14 17:35:00
1:55 PM,48.2,6.8,19,30.11,10.0,Calm,Calm,-,N/A,,Clear,0,2013-03-14 17:55:00
2:15 PM,48.2,5.0,17,30.11,10.0,West,5.8,-,N/A,,Clear,270,2013-03-14 18:15:00
2:35 PM,48.2,6.8,19,30.10,10.0,West,8.1,16.1,N/A,,Clear,280,2013-03-14 18:35:00
2:55 PM,50.0,5.0,16,30.09,10.0,West,11.5,18.4,N/A,,Clear,280,2013-03-14 18:55:00
3:15 PM,50.0,5.0,16,30.07,10.0,West,5.8,18.4,N/A,,Clear,260,2013-03-14 19:15:00
3:35 PM,51.8,5.0,15,30.08,10.0,West,9.2,18.4,N/A,,Clear,270,2013-03-14 19:35:00
3:55 PM,51.8,5.0,15,30.07,10.0,West,8.1,19.6,N/A,,Clear,280,2013-03-14 19:55:00
4:15 PM,51.8,1.4,13,30.07,10.0,WNW,8.1,17.3,N/A,,Clear,290,2013-03-14 20:15:00
4:35 PM,53.6,3.2,13,30.06,10.0,West,10.4,-,N/A,,Clear,260,2013-03-14 20:35:00
4:55 PM,53.6,6.8,15,30.06,10.0,WSW,8.1,16.1,N/A,,Clear,240,2013-03-14 20:55:00
5:15 PM,51.8,3.2,14,30.05,10.0,WSW,10.4,16.1,N/A,,Clear,250,2013-03-14 21:15:00
5:35 PM,51.8,5.0,15,30.05,10.0,WSW,6.9,-,N/A,,Clear,240,2013-03-14 21:35:00
5:55 PM,51.8,5.0,15,30.04,10.0,WSW,9.2,-,N/A,,Clear,240,2013-03-14 21:55:00
6:15 PM,51.8,-0.4,12,30.05,10.0,West,4.6,-,N/A,,Clear,280,2013-03-14 22:15:00
6:35 PM,51.8,6.8,16,30.06,10.0,West,6.9,-,N/A,,Clear,260,2013-03-14 22:35:00
6:55 PM,50.0,3.2,15,30.06,10.0,West,6.9,-,N/A,,Clear,270,2013-03-14 22:55:00
7:15 PM,48.2,5.0,17,30.06,10.0,West,4.6,-,N/A,,Clear,260,2013-03-14 23:15:00
7:35 PM,48.2,5.0,17,30.07,10.0,WSW,3.5,-,N/A,,Clear,240,2013-03-14 23:35:00
7:55 PM,46.4,6.8,20,30.08,10.0,WSW,3.5,-,N/A,,Clear,250,2013-03-14 23:55:00
8:15 PM,46.4,5.0,18,30.08,10.0,WSW,3.5,-,N/A,,Clear,250,2013-03-15 00:15:00
8:35 PM,46.4,5.0,18,30.09,10.0,WSW,3.5,-,N/A,,Clear,250,2013-03-15 00:35:00
8:55 PM,44.6,6.8,21,30.09,10.0,Calm,Calm,-,N/A,,Clear,0,2013-03-15 00:55:00
9:15 PM,44.6,5.0,20,30.10,10.0,Calm,Calm,-,N/A,,Clear,0,2013-03-15 01:15:00
9:35 PM,44.6,5.0,20,30.09,10.0,West,3.5,-,N/A,,Clear,280,2013-03-15 01:35:00
9:55 PM,44.6,6.8,21,30.10,10.0,Calm,Calm,-,N/A,,Clear,0,2013-03-15 01:55:00
10:15 PM,42.8,6.8,23,30.11,10.0,West,4.6,-,N/A,,Clear,280,2013-03-15 02:15:00
10:35 PM,42.8,6.8,23,30.10,10.0,West,3.5,-,N/A,,Clear,260,2013-03-15 02:35:00
10:55 PM,39.2,10.4,31,30.11,10.0,SSW,4.6,-,N/A,,Clear,200,2013-03-15 02:55:00
11:15 PM,42.8,6.8,23,30.11,10.0,WSW,4.6,-,N/A,,Clear,250,2013-03-15 03:15:00
11:35 PM,39.2,8.6,28,30.12,10.0,Calm,Calm,-,N/A,,Clear,0,2013-03-15 03:35:00
11:55 PM,39.2,6.8,26,30.11,10.0,WSW,4.6,-,N/A,,Clear,240,2013-03-15 03:55:00